Powrót do katalogu

SL-14 R/B

AktywnyPO
NORAD 21034·ROCKET BODY·🇷🇺 Russia

Wystrzelony Dec 22, 1990 z Plesetsk Cosmodrome

Loading…

Następne Przeloty (najbliższe 24 godziny)

TLE

ŚwieżeSource: Space-Track

Epoka: Sep 14, 2026, 20:16 UTC

1 21034U 90114G   26257.84462678 -.00000008  00000-0 -10967-3 0  9998
2 21034  82.5617 274.0714 0039359 176.1019 359.9957 12.55538982637360

Śledź SL-14 R/B w czasie rzeczywistym z AllMySat

Download on the App Store